sat.trackr.live / text

‹ back to catalog

STARLINK-30499

NORAD 57918 · 2023-147F

PAYLOAD ACTIVE UNKNOWN

§ Identity

Operator
Country
US
Launch date
2023-09-24
Launch site
AFETR
Launch vehicle
Mass (kg)
RCS (m²)

Purposes: comms

External: N2YO · Heavens-Above · Gunter

§ Orbital elements

Epoch: 2026-09-20T10:07:55.391232Z

Period
94.27 min
Inclination
43.0010°
Eccentricity
0.0001218
Mean motion
15.27585068 rev/d
Perigee alt
482.2 km
Apogee alt
483.9 km
Semi-major
6,861.2 km
B*
1.1579e-5
RAAN
160.4746°
Arg perigee
267.7092°
Mean anomaly
92.3620°
Rev number
16,811

§ Raw data

STARLINK-304991 57918U 23147F   26263.42216888  .00000057  00000+0  11579-4 0  99932 57918  43.0010 160.4746 0001218 267.7092  92.3620 15.27585068168119

JSON: /api/v1/satellites/57918 · /tle

For live sub-satellite position, see the globe view (requires WebGL).

§ Visibility from observer

Set your observer location to see the next 7 days of passes ≥ 10°. The values pass through the URL so the page stays shareable.

No JS? Fill the form by hand. The geolocation button needs JavaScript.